Regional Weather Roundup
Issued by NWS Northern Indiana

Home | Current Version | Previous Version | Graphics & Text | Print | Product List | Glossary On
Versions: 1 2 3 4 5 6 7 8 9 10 11 12 13 14 15 16 17 18 19 20 21 22 23 24 25 26 27 28 29 30 31 32 33 34 35 36 37 38 39 40 41 42 43 44 45 46 47 48 49 50
000
ASUS43 KIWX 262110
RWRIWX

KIWX WEATHER ROUNDUP
NATIONAL WEATHER SERVICE NORTHERN INDIANA
400 PM EST THU FEB 26 2015

NOTE: "FAIR" INDICATES FEW OR NO CLOUDS BELOW 12,000 FEET WITH NO
SIGNIFICANT WEATHER AND/OR OBSTRUCTIONS TO VISIBILITY.

* THESE STATIONS ARE NOT UNDER NWS QUALITY CONTROL. THEY ALSO MAY NOT
  REPORT WEATHER SUCH AS PRECIPITATION OR FOG.

INZ001>027-262200-
NORTHERN INDIANA

CITY           SKY/WX    TMP DP  RH WIND       PRES   REMARKS
GARY*          LGT SNOW  19   7  58 N12G23    30.26R WCI   7
VALPARAISO     CLOUDY    15   6  67 N10       30.23R WCI   2
MICHIGAN CITY* LGT SNOW  16   3  57 N9        30.25R WCI   4
LAPORTE*       MOSUNNY   17   7  63 N14       30.23R WCI   3
KNOX*            N/A     16  -8  35 N13       30.23R WCI   2
SOUTH BEND     MOSUNNY   16  -2  45 NW18      30.22R WCI   0
ELKHART*       PTSUNNY   18   0  45 NW9       30.21R WCI   6
GOSHEN         CLOUDY    17   5  59 N12       30.19R WCI   4
MONTICELLO*    CLOUDY    17  10  72 N14G20    30.21R WCI   3
LOGANSPORT*    LGT SNOW  18  12  79 N9        30.22R WCI   6
ROCHESTER*     PTSUNNY   21  10  63 NW12      30.20R WCI   9
WARSAW*        CLOUDY    18   9  68 NW8       30.19R WCI   7
ANGOLA*        CLOUDY    12   3  67 N8        30.17R WCI   1
FORT WAYNE     CLOUDY    17   7  64 NW7       30.18R WCI   8
HUNTINGTON*    CLOUDY    17   4  56 N5        30.18R WCI  10
PERU/GRISSOM   FLURRIES  18   8  64 N10       30.19R WCI   6
MARION*        CLOUDY    17   6  60 N9        30.18R WCI   6

$$
INZ028>050-262200-
CENTRAL INDIANA

CITY           SKY/WX    TMP DP  RH WIND       PRES   REMARKS
LAFAYETTE      LGT SNOW  18  12  77 N12G21    30.23R WCI   5
KOKOMO*        MOSUNNY   19  10  68 N8        30.20R WCI   9
MUNCIE*        PTSUNNY   15   6  67 N15       30.16R WCI   0
INDIANAPOLIS   CLOUDY    20   9  62 N14       30.17R WCI   7

$$
MIZ043>046-050>051-056>058-064>065-071>073-077>080-262200-
SOUTHWEST LOWER MICHIGAN

CITY           SKY/WX    TMP DP  RH WIND       PRES   REMARKS
BATTLE CREEK   PTSUNNY   15   0  51 N7        30.18R WCI   5
BENTON HARBOR  MOSUNNY   13   0  56 VRB5      30.24R WCI   5
COLDWATER*     CLOUDY    15   2  58 N7        30.17R WCI   5
HILLSDALE*     CLOUDY    14   2  61 N6        30.14R WCI   5
HOLLAND        SUNNY     15  -6  39 NE6       30.24R WCI   6
GRAND RAPIDS   PTSUNNY   15  -5  40 N7        30.21R WCI   5
KALAMAZOO      MOSUNNY   15   0  51 NW13      30.19R WCI   1
STURGIS*       CLOUDY    16   3  57 N6        30.17R WCI   7
THREE RIVERS*  FAIR      16   2  54 N6        30.19R WCI   8

$$
OHZ001>008-015>018-024>025-262200-
NORTHWEST OHIO

CITY           SKY/WX    TMP DP  RH WIND       PRES   REMARKS
WAUSEON*       PTSUNNY   14   3  62 N9        30.18R WCI   2
DEFIANCE       CLOUDY    17   5  59 N6        30.19R WCI   9
FINDLAY        PTSUNNY   15   3  59 NE13      30.15R WCI   1
TOLEDO EXPRESS CLOUDY    14   4  64 N13       30.18R WCI   0
TOLEDO METCALF CLOUDY    16   6  65 N5        30.19R WCI   9
LIMA           CLOUDY    14   4  64 N15G21    30.14R WCI  -1

$$
AND FOR LAKE MICHIGAN COASTAL AND OPEN LAKE BUOY OBSERVATIONS

STATION/POSITION TEMP    WIND        PRES    VSBY  WAVE
                 AIR SEA DIR/SP/G                  HT/PER
                 (F)     (DEG/KT/KT) (MB)    (MI)  (FT/S)
CALUMET HARBOR    16     330/ 11/ 17 1023.6R
MICHIGAN CITY     15     360/ 15/ 18   N/A
SAINT JOSEPH      13     360/ 11/ 16 1025.1R

$$
&&


USA.gov is the U.S. government's official web portal to all federal, state and local government web resources and services.